| time (UTC) | temp F | wind direction | speed MPH | gust MPH | rain 1hr in | rain 24hr in | rain mn in | humidity % | barometer mb |
| 20260506221506 | 55 | 323 | 1.0 | 3.0 | 0.00 | 0.37 | 0.37 | 91 | 1009.6 |
| 20260506220015 | 56 | 302 | 0.0 | 2.0 | 0.00 | 0.37 | 0.37 | 91 | 1009.3 |
| 20260506214506 | 56 | 326 | 0.0 | 2.0 | 0.00 | 0.37 | 0.37 | 91 | 1009.0 |
| 20260506213004 | 56 | 355 | 0.0 | 2.0 | 0.00 | 0.37 | 0.37 | 91 | 1009.0 |
| 20260506211507 | 56 | 360 | 0.0 | 5.0 | 0.00 | 0.37 | 0.37 | 90 | 1008.6 |
| 20260506210005 | 57 | 330 | 0.0 | 2.0 | 0.00 | 0.37 | 0.37 | 92 | 1008.3 |
| 20260506204559 | 57 | 330 | 1.0 | 4.0 | 0.01 | 0.37 | 0.37 | 92 | 1008.3 |
| 20260506203058 | 56 | 334 | 2.0 | 4.0 | 0.01 | 0.37 | 0.37 | 92 | 1008.1 |
| 20260506201556 | 57 | 360 | 1.0 | 8.0 | 0.01 | 0.37 | 0.37 | 91 | 1007.8 |
| 20260506200056 | 58 | 329 | 1.0 | 4.0 | 0.01 | 0.37 | 0.37 | 91 | 1007.8 |
| 20260506194621 | 58 | 345 | 2.0 | 5.0 | 0.00 | 0.36 | 0.36 | 90 | 1007.5 |
| 20260506193103 | 59 | 344 | 1.0 | 3.0 | 0.00 | 0.36 | 0.36 | 91 | 1007.2 |
| 20260506191553 | 59 | 334 | 0.0 | 4.0 | 0.00 | 0.36 | 0.36 | 90 | 1007.2 |
| 20260506190055 | 60 | 328 | 1.0 | 4.0 | 0.00 | 0.36 | 0.36 | 89 | 1007.3 |
| 20260506184552 | 60 | 355 | 1.0 | 4.0 | 0.00 | 0.36 | 0.36 | 88 | 1007.2 |
| 20260506183051 | 60 | 309 | 0.0 | 3.0 | 0.00 | 0.36 | 0.36 | 89 | 1007.1 |
| 20260506181551 | 60 | 287 | 0.0 | 5.0 | 0.01 | 0.36 | 0.36 | 88 | 1007.2 |
| 20260506174552 | 60 | 293 | 1.0 | 6.0 | 0.01 | 0.36 | 0.36 | 90 | 1007.3 |
| 20260506173055 | 60 | 312 | 2.0 | 7.0 | 0.01 | 0.36 | 0.36 | 90 | 1007.2 |
| 20260506171551 | 61 | 315 | 1.0 | 4.0 | 0.00 | 0.35 | 0.35 | 89 | 1007.4 |
| 20260506164546 | 61 | 5 | 2.0 | 7.0 | 0.00 | 0.35 | 0.35 | 88 | 1007.1 |
| 20260506163105 | 61 | 317 | 1.0 | 3.0 | 0.00 | 0.35 | 0.35 | 88 | 1007.0 |
| 20260506161545 | 61 | 290 | 1.0 | 5.0 | 0.00 | 0.35 | 0.35 | 87 | 1007.0 |
| 20260506160044 | 61 | 351 | 2.0 | 10.0 | 0.00 | 0.35 | 0.35 | 87 | 1006.8 |
| 20260506154604 | 61 | 193 | 2.0 | 12.0 | 0.00 | 0.35 | 0.35 | 89 | 1006.6 |
| 20260506153051 | 60 | 153 | 1.0 | 10.0 | 0.00 | 0.35 | 0.35 | 92 | 1006.5 |
| 20260506151546 | 60 | 342 | 1.0 | 6.0 | 0.00 | 0.35 | 0.35 | 93 | 1006.4 |
| 20260506150042 | 59 | 130 | 0.0 | 4.0 | 0.00 | 0.35 | 0.35 | 94 | 1006.4 |
| 20260506144540 | 58 | 342 | 0.0 | 2.0 | 0.00 | 0.35 | 0.35 | 94 | 1006.3 |
| 20260506143048 | 58 | 145 | 0.0 | 3.0 | 0.00 | 0.35 | 0.35 | 94 | 1006.4 |
| 20260506141541 | 57 | 144 | 1.0 | 4.0 | 0.01 | 0.35 | 0.35 | 94 | 1005.8 |
| 20260506140039 | 57 | 161 | 1.0 | 3.0 | 0.01 | 0.35 | 0.35 | 93 | 1006.1 |
| 20260506134537 | 57 | 161 | 0.0 | 5.0 | 0.01 | 0.35 | 0.35 | 93 | 1006.2 |
| 20260506133039 | 56 | 173 | 0.0 | 0.0 | 0.02 | 0.35 | 0.35 | 94 | 1006.2 |
| 20260506131537 | 56 | 157 | 0.0 | 3.0 | 0.03 | 0.34 | 0.34 | 93 | 1006.2 |
| 20260506130036 | 56 | 141 | 2.0 | 4.0 | 0.07 | 0.34 | 0.34 | 93 | 1006.1 |
| 20260506124534 | 56 | 154 | 0.0 | 3.0 | 0.11 | 0.34 | 0.34 | 93 | 1006.1 |
| 20260506123036 | 55 | 153 | 0.0 | 3.0 | 0.14 | 0.33 | 0.33 | 93 | 1006.2 |
| 20260506121540 | 55 | 148 | 0.0 | 3.0 | 0.12 | 0.30 | 0.30 | 93 | 1006.1 |
| 20260506120033 | 55 | 140 | 2.0 | 5.0 | 0.09 | 0.27 | 0.27 | 93 | 1005.7 |
| 20260506114541 | 55 | 153 | 0.0 | 3.0 | 0.06 | 0.22 | 0.22 | 93 | 1005.8 |
| 20260506113031 | 55 | 160 | 2.0 | 5.0 | 0.08 | 0.19 | 0.19 | 93 | 1005.7 |
| 20260506111536 | 55 | 150 | 0.0 | 0.0 | 0.07 | 0.18 | 0.18 | 93 | 1005.6 |
| 20260506110032 | 55 | 150 | 0.0 | 0.0 | 0.10 | 0.18 | 0.18 | 92 | 1005.6 |
| 20260506104528 | 55 | 149 | 0.0 | 0.0 | 0.10 | 0.15 | 0.15 | 92 | 1005.6 |
| 20260506103027 | 55 | 149 | 0.0 | 0.0 | 0.08 | 0.11 | 0.11 | 92 | 1005.9 |
| 20260506101529 | 55 | 149 | 0.0 | 2.0 | 0.09 | 0.11 | 0.11 | 92 | 1005.8 |
| 20260506100025 | 55 | 155 | 0.0 | 5.0 | 0.07 | 0.08 | 0.08 | 91 | 1006.0 |
| 20260506094523 | 55 | 157 | 0.0 | 0.0 | 0.04 | 0.05 | 0.05 | 91 | 1006.4 |
| 20260506093028 | 56 | 157 | 0.0 | 0.0 | 0.02 | 0.03 | 0.03 | 90 | 1006.2 |
| 20260506091523 | 56 | 157 | 0.0 | 0.0 | 0.01 | 0.02 | 0.02 | 89 | 1005.9 |
| 20260506090022 | 56 | 157 | 0.0 | 0.0 | 0.01 | 0.01 | 0.01 | 87 | 1005.9 |
| 20260506084516 | 57 | 157 | 0.0 | 0.0 | 0.01 | 0.01 | 0.01 | 85 | 1006.0 |
| 20260506083014 | 57 | 157 | 0.0 | 0.0 | 0.01 | 0.01 | 0.01 | 82 | 1006.0 |
| 20260506081509 | 59 | 157 | 0.0 | 0.0 | 0.01 | 0.01 | 0.01 | 74 | 1006.0 |
| 20260506073109 | 62 | 157 | 0.0 | 1.0 | 0.00 | 0.00 | 0.00 | 57 | 1006.1 |
| 20260506073002 | 62 | 157 | 0.0 | 1.0 | 0.00 | 0.00 | 0.00 | 57 | 1006.1 |
| 20260506071600 | 62 | 163 | 0.0 | 2.0 | 0.00 | 0.00 | 0.00 | 58 | 1005.9 |
| 20260506070104 | 63 | 163 | 0.0 | 3.0 | 0.00 | 0.00 | 0.00 | 56 | 1006.0 |
| 20260506061548 | 65 | 168 | 2.0 | 6.0 | 0.00 | 0.00 | 0.00 | 49 | 1006.2 |
| 20260506044544 | 66 | 164 | 2.0 | 8.0 | 0.00 | 0.00 | 0.00 | 47 | 1007.6 |
| 20260506043036 | 66 | 165 | 2.0 | 7.0 | 0.00 | 0.00 | 0.00 | 46 | 1007.7 |
| 20260506041534 | 67 | 237 | 6.0 | 11.0 | 0.00 | 0.00 | 0.00 | 45 | 1007.6 |
| 20260506040051 | 67 | 162 | 4.0 | 11.0 | 0.00 | 0.00 | 0.00 | 45 | 1007.7 |
| 20260506034530 | 67 | 157 | 2.0 | 8.0 | 0.00 | 0.00 | 0.00 | 46 | 1007.5 |
| 20260506033029 | 66 | 169 | 4.0 | 12.0 | 0.00 | 0.00 | 0.00 | 45 | 1007.7 |
| 20260506031541 | 62 | 146 | 3.0 | 8.0 | 0.00 | 0.00 | 0.00 | 54 | 1007.6 |
| 20260506030027 | 60 | 156 | 1.0 | 4.0 | 0.00 | 0.00 | 0.00 | 62 | 1007.8 |
| 20260506024529 | 61 | 160 | 1.0 | 3.0 | 0.00 | 0.00 | 0.00 | 61 | 1008.1 |
| 20260506023027 | 61 | 156 | 2.0 | 3.0 | 0.00 | 0.00 | 0.00 | 63 | 1008.1 |
| 20260506021526 | 61 | 163 | 2.0 | 5.0 | 0.00 | 0.00 | 0.00 | 61 | 1008.2 |
| 20260506020025 | 61 | 150 | 3.0 | 5.0 | 0.00 | 0.00 | 0.00 | 61 | 1008.5 |
| 20260506014524 | 61 | 169 | 1.0 | 4.0 | 0.00 | 0.00 | 0.00 | 62 | 1008.5 |
| 20260506013024 | 61 | 168 | 1.0 | 6.0 | 0.00 | 0.00 | 0.00 | 59 | 1008.3 |
| 20260506011527 | 62 | 162 | 2.0 | 3.0 | 0.00 | 0.00 | 0.00 | 59 | 1008.5 |
| 20260506010022 | 62 | 156 | 2.0 | 5.0 | 0.00 | 0.00 | 0.00 | 59 | 1008.2 |
| 20260506004526 | 62 | 159 | 0.0 | 1.0 | 0.00 | 0.00 | 0.00 | 60 | 1008.4 |
| 20260506003022 | 63 | 159 | 0.0 | 2.0 | 0.00 | 0.00 | 0.00 | 58 | 1008.2 |
| 20260506001522 | 63 | 160 | 1.0 | 4.0 | 0.00 | 0.00 | 0.00 | 57 | 1008.1 |
| 20260506000023 | 67 | 119 | 0.0 | 1.0 | 0.00 | 0.00 | 0.00 | 48 | 1008.3 |
| 20260505234520 | 67 | 315 | 0.0 | 0.0 | 0.00 | 0.00 | 0.00 | 46 | 1008.0 |
| 20260505233020 | 69 | 315 | 0.0 | 0.0 | 0.00 | 0.00 | 0.00 | 42 | 1007.8 |
| 20260505231528 | 71 | 323 | 0.0 | 2.0 | 0.00 | 0.00 | 0.00 | 38 | 1007.7 |
| 20260505230026 | 72 | 307 | 1.0 | 3.0 | 0.00 | 0.00 | 0.00 | 37 | 1007.6 |
| 20260505224518 | 73 | 300 | 1.0 | 4.0 | 0.00 | 0.00 | 0.00 | 35 | 1007.7 |
| 20260505223016 | 73 | 322 | 2.0 | 7.0 | 0.00 | 0.00 | 0.00 | 35 | 1008.0 |